OBJECT E, 43755

Orbit data source: Space-Track

You're viewing an Uncataloged Satellite

Recently launched and/or uncataloged satellites may have evolving metadata. Metadata may include but not limited to: Owner, Maufacturer, Bus, Motor, and Mission.

OBJECT E, 43755 is a satellite owned by NIIPP (CIS) in LEO that was launched on Fri, 30 Nov 2018 UTC launched from the Plesetsk Missile And Space Complex (PKMTR). Unknown objects in Earth's orbit typically refer to objects detected orbiting the Earth but have not yet been identified or cataloged. These objects could be anything from previously untracked satellites, spent rocket stages, debris from satellite collisions, or even natural meteoroids temporarily captured by Earth's gravity.

Loading next visibility...
OBJECT E details
Identifier
43755, 2018-097E
Orbit
LEO
Last TLE update18 hours ago
Origin
Flag of CISNIIPP (CIS)
ManufacturerNIIPP
MissionSpacecraft
Bus & MotorUnknown
MassUnknown
Launch date (UTC)
2018-11-30 (6 years ago)
Launch vehicleUnknown
Launch site
Plesetsk Missile And Space Complex (PKMTR)
Object typeUnknown
Shape & HBRBox, 0.2 m
Radar Cross Section0.060 m², Small (<0.1 m²)

Expand to show TLE details & history

TLE from 18 hours ago
0 OBJECT E
1 43755U 18097E   24339.40807637  .00000038  00000-0  10301-3 0  9994
2 43755  82.5124 109.6363 0216776 167.3206 193.3473 12.80886228280948
Epoch: 2024-12-04T09:47Z
Definitive object data (Epoch: 2024-12-04T09:47:37.798Z)
Latitude0.00001°
Longitude-110.97485°
Altitude1,503.63 km
Speed7.037 km/s
True Right ascension07h 18m 32s
True Declination0° 00' 00"
Sunlit
Object was in full shadow at TLE epoch
Visualization TLE readout
Latitude-77.30848°
Longitude104.02074°
Altitude1,373.875 km
Speed7.168 km/s
Apparent Right ascension15h 18m 41s
Apparent Declination-69° 02' 51"
Sunlit
Object is in daylight
Visualization observer readout
Local Sidereal Time01:57:24
Azimuth193.919° SSW
Elevation-58.919°
Doppler factor1
Orbital elements
Apogee altitude1,502.411 km
Perigee altitude1,167.997 km
Semi-major axis7,713.341 km
Eccentricity0.0216776
Inclination82.5124°
RAAN109.6363°
Arg. of periapsis167.3206°
True anomaly192.7886°
Mean anomaly193.3473°
Eccentric anomaly193.0665°
Mean motion3.2039 °/min
BSTAR0.00010301
Orbital period112.36 mins
Loading maneuver chart data...
Loading historical data...
Loading historical data...
Loading historical data...
Loading historical data...
Loading historical data...
Loading historical data...
Loading historical data...
Other satellites on launch #97 in the year 2018 (2018-11-30 UTC)

OBJECT E Visibility forecast

Observer location: undefined°, undefined

Span
Click to sort rows by Start time (UTC) header in descending order
Start Az.
Max El. time (UTC)
Max El. Az.
Max El.
End time (UTC)
End Az.
14 mins2024-12-05 08:23:04.585Z143.668° SSE2024-12-05 08:30:04.585Z88.519° E28.292°2024-12-05 08:37:04.585Z27.681° NE
15 mins2024-12-05 10:16:04.585Z209.902° SW2024-12-05 10:23:04.585Z277.338° WNW38.474°2024-12-05 10:31:04.585Z357.965° N
12 mins2024-12-05 20:10:04.585Z5.365° NNE2024-12-05 20:16:04.585Z89.449° E38.668°2024-12-05 20:22:04.585Z152.877° SSE
9 mins2024-12-05 22:04:04.585Z320.611° NNW2024-12-05 22:08:04.585Z281.476° WNW22.74°2024-12-05 22:13:04.585Z230.658° WSW
|